When you browse on this site, cookies collect data to enhance your experience and personalize the content and advertising you see.
Visit our Privacy Policy to learn more. By continuing to use the site, you agree to this use of cookies and data.
  • In Romania
  • List of Countries
  • For 7 days
  • Water Temperature
  • Satellite Maps
  • Weather Map
  • Weather Widgets
  • user-avatar
    Login

    Hourly Weather Arnoldstein

    Today, 17 February, Sunday

    Time Temperature Precipitation Wind Pressure Humidity
    00:00 +3°C° 0 mm 1 mps 699 mmHg 65%
    01:00 +3°C° 0 mm 1 mps 699 mmHg 66%
    02:00 +2°C° 0 mm 1 mps 698 mmHg 64%
    03:00 +2°C° 0 mm 1 mps 698 mmHg 63%
    04:00 +2°C° 0 mm 1 mps 698 mmHg 61%
    05:00 +2°C° 0 mm 1 mps 698 mmHg 60%
    06:00 +2°C° 0 mm 1 mps 698 mmHg 59%
    07:00 +2°C° 0 mm 1 mps 698 mmHg 59%
    08:00 +4°C° 0 mm 1 mps 698 mmHg 60%
    09:00 +7°C° 0 mm 1 mps 698 mmHg 61%
    10:00 +8°C° 0 mm 0 mps 698 mmHg 62%
    11:00 +9°C° 0 mm 0 mps 698 mmHg 59%
    12:00 +11°C° 0 mm 0 mps 698 mmHg 55%
    13:00 +12°C° 0 mm 0 mps 698 mmHg 52%
    14:00 +11°C° 0 mm 0 mps 697 mmHg 57%
    15:00 +11°C° 0 mm 0 mps 697 mmHg 63%
    16:00 +10°C° 0 mm 0 mps 697 mmHg 68%
    17:00 +8°C° 0 mm 0 mps 696 mmHg 71%
    18:00 +7°C° 0 mm 1 mps 696 mmHg 73%
    19:00 +5°C° 0 mm 1 mps 696 mmHg 76%
    20:00 +4°C° 0 mm 1 mps 696 mmHg 75%
    21:00 +4°C° 0 mm 1 mps 696 mmHg 74%
    22:00 +4°C° 0 mm 1 mps 696 mmHg 73%
    23:00 +3°C° 0 mm 1 mps 696 mmHg 71%

    Tomorrow, 18 February, Monday

    Time Temperature Precipitation Wind Pressure Humidity
    00:00 +3°C° 0 mm 1 mps 696 mmHg 69%
    01:00 +3°C° 0 mm 1 mps 696 mmHg 67%
    02:00 +3°C° 0 mm 1 mps 696 mmHg 66%
    03:00 +3°C° 0 mm 1 mps 695 mmHg 64%
    04:00 +2°C° 0 mm 1 mps 695 mmHg 63%
    05:00 +2°C° 0 mm 1 mps 695 mmHg 62%
    06:00 +2°C° 0 mm 1 mps 695 mmHg 60%
    07:00 +2°C° 0 mm 1 mps 695 mmHg 59%
    08:00 +4°C° 0 mm 1 mps 695 mmHg 58%
    09:00 +6°C° 0 mm 1 mps 695 mmHg 56%
    10:00 +8°C° 0 mm 0 mps 695 mmHg 54%
    11:00 +10°C° 0 mm 1 mps 695 mmHg 52%
    12:00 +11°C° 0 mm 1 mps 695 mmHg 50%
    13:00 +12°C° 0 mm 1 mps 695 mmHg 48%
    14:00 +11°C° 0 mm 1 mps 694 mmHg 53%
    15:00 +10°C° 0 mm 1 mps 694 mmHg 59%
    16:00 +10°C° 0 mm 1 mps 694 mmHg 65%
    17:00 +8°C° 0 mm 1 mps 694 mmHg 69%
    18:00 +6°C° 0 mm 1 mps 693 mmHg 74%
    19:00 +4°C° 0 mm 1 mps 693 mmHg 79%
    20:00 +4°C° 0 mm 1 mps 693 mmHg 78%
    21:00 +3°C° 0 mm 1 mps 694 mmHg 77%
    22:00 +3°C° 0 mm 1 mps 694 mmHg 76%
    23:00 +3°C° 0 mm 1 mps 694 mmHg 75%

    Day after tomorrow, 19 February, Tuesday

    Time Temperature Precipitation Wind Pressure Humidity
    00:00 +3°C° 0 mm 1 mps 694 mmHg 74%
    01:00 +2°C° 0 mm 1 mps 694 mmHg 72%
    02:00 +2°C° 0 mm 1 mps 693 mmHg 72%
    03:00 +2°C° 0 mm 1 mps 693 mmHg 72%
    04:00 +2°C° 0 mm 1 mps 693 mmHg 72%
    05:00 +2°C° 0 mm 1 mps 693 mmHg 71%
    06:00 +2°C° 0 mm 1 mps 693 mmHg 71%
    07:00 +2°C° 0 mm 1 mps 693 mmHg 71%
    08:00 +4°C° 0 mm 1 mps 694 mmHg 68%
    09:00 +6°C° 0 mm 1 mps 694 mmHg 64%
    10:00 +7°C° 0 mm 1 mps 695 mmHg 60%
    11:00 +8°C° 0 mm 1 mps 695 mmHg 59%
    12:00 +9°C° 0 mm 1 mps 695 mmHg 57%
    13:00 +10°C° 0 mm 1 mps 695 mmHg 56%
    14:00 +10°C° 0 mm 1 mps 694 mmHg 61%
    15:00 +10°C° 0 mm 1 mps 694 mmHg 65%
    16:00 +9°C° 0 mm 1 mps 694 mmHg 70%
    17:00 +7°C° 0 mm 1 mps 694 mmHg 75%
    18:00 +6°C° 0 mm 1 mps 694 mmHg 81%
    19:00 +4°C° 0 mm 1 mps 694 mmHg 86%
    20:00 +4°C° 0 mm 1 mps 694 mmHg 86%
    21:00 +3°C° 0 mm 1 mps 694 mmHg 85%
    22:00 +3°C° 0 mm 1 mps 695 mmHg 85%
    23:00 +3°C° 0 mm 1 mps 695 mmHg 83%

    20 February, Wednesday

    Time Temperature Precipitation Wind Pressure Humidity
    00:00 +3°C° 0 mm 1 mps 695 mmHg 81%
    01:00 +3°C° 0 mm 1 mps 695 mmHg 79%
    02:00 +2°C° 0 mm 1 mps 695 mmHg 78%
    03:00 +2°C° 0 mm 1 mps 695 mmHg 76%
    04:00 +2°C° 0 mm 1 mps 695 mmHg 74%
    05:00 +2°C° 0 mm 1 mps 695 mmHg 73%
    06:00 +2°C° 0 mm 1 mps 695 mmHg 71%
    07:00 +2°C° 0 mm 1 mps 695 mmHg 70%
    08:00 +4°C° 0 mm 1 mps 696 mmHg 64%
    09:00 +5°C° 0 mm 0 mps 696 mmHg 58%
    10:00 +7°C° 0 mm 0 mps 697 mmHg 52%
    11:00 +8°C° 0 mm 0 mps 697 mmHg 50%
    12:00 +9°C° 0 mm 0 mps 697 mmHg 48%
    13:00 +10°C° 0 mm 0 mps 697 mmHg 45%
    14:00 +9°C° 0 mm 0 mps 697 mmHg 49%
    15:00 +9°C° 0 mm 0 mps 697 mmHg 54%
    16:00 +8°C° 0 mm 0 mps 696 mmHg 58%
    17:00 +7°C° 0 mm 0 mps 696 mmHg 62%
    18:00 +5°C° 0 mm 0 mps 697 mmHg 67%
    19:00 +3°C° 0 mm 0 mps 697 mmHg 71%
    20:00 +3°C° 0 mm 0 mps 697 mmHg 72%
    21:00 +4°C° 0 mm 1 mps 697 mmHg 73%
    22:00 +3°C° 0 mm 1 mps 698 mmHg 74%
    23:00 +3°C° 0 mm 1 mps 698 mmHg 74%

    21 February, Thursday

    Time Temperature Precipitation Wind Pressure Humidity
    00:00 +3°C° 0 mm 1 mps 698 mmHg 74%
    01:00 +3°C° 0 mm 1 mps 698 mmHg 74%
    02:00 +3°C° 0 mm 1 mps 698 mmHg 73%
    03:00 +3°C° 0 mm 1 mps 698 mmHg 73%
    04:00 +3°C° 0 mm 1 mps 698 mmHg 72%
    05:00 +3°C° 0 mm 1 mps 698 mmHg 72%
    06:00 +3°C° 0 mm 1 mps 698 mmHg 71%
    07:00 +3°C° 0 mm 1 mps 698 mmHg 71%
    08:00 +3°C° 0 mm 0 mps 698 mmHg 66%
    09:00 +5°C° 0 mm 0 mps 699 mmHg 60%
    10:00 +7°C° 0 mm 0 mps 699 mmHg 55%
    11:00 +8°C° 0 mm 0 mps 699 mmHg 53%
    12:00 +9°C° 0 mm 0 mps 699 mmHg 51%
    13:00 +10°C° 0 mm 0 mps 699 mmHg 50%
    14:00 +10°C° 0 mm 0 mps 699 mmHg 53%
    15:00 +10°C° 0 mm 0 mps 698 mmHg 56%
    16:00 +9°C° 0 mm 0 mps 698 mmHg 60%
    17:00 +8°C° 0 mm 0 mps 698 mmHg 65%
    18:00 +6°C° 0 mm 0 mps 698 mmHg 70%
    19:00 +4°C° 0 mm 0 mps 698 mmHg 75%
    20:00 +4°C° 0 mm 0 mps 698 mmHg 76%
    21:00 +5°C° 0 mm 1 mps 699 mmHg 77%
    22:00 +5°C° 0 mm 1 mps 699 mmHg 78%
    23:00 +4°C° 0 mm 1 mps 699 mmHg 79%

    22 February, Friday

    Time Temperature Precipitation Wind Pressure Humidity
    00:00 +4°C° 0 mm 1 mps 699 mmHg 79%
    01:00 +3°C° 0 mm 1 mps 698 mmHg 79%
    02:00 +3°C° 0 mm 1 mps 698 mmHg 79%
    03:00 +3°C° 0 mm 1 mps 698 mmHg 79%
    04:00 +3°C° 0 mm 1 mps 698 mmHg 79%
    05:00 +3°C° 0 mm 1 mps 698 mmHg 79%
    06:00 +3°C° 0 mm 1 mps 698 mmHg 79%
    07:00 +3°C° 0 mm 1 mps 698 mmHg 79%
    08:00 +5°C° 0 mm 1 mps 698 mmHg 73%
    09:00 +7°C° 0 mm 1 mps 699 mmHg 67%
    10:00 +8°C° 0 mm 1 mps 699 mmHg 61%
    11:00 +10°C° 0 mm 1 mps 699 mmHg 57%
    12:00 +11°C° 0 mm 1 mps 698 mmHg 53%
    13:00 +12°C° 0 mm 1 mps 698 mmHg 49%
    14:00 +12°C° 0 mm 1 mps 698 mmHg 52%
    15:00 +11°C° 0 mm 1 mps 698 mmHg 54%
    16:00 +11°C° 0 mm 1 mps 697 mmHg 57%
    17:00 +9°C° 0 mm 1 mps 698 mmHg 62%
    18:00 +8°C° 0 mm 1 mps 698 mmHg 68%
    19:00 +6°C° 0 mm 1 mps 698 mmHg 74%
    20:00 +5°C° 0 mm 1 mps 698 mmHg 76%
    21:00 +5°C° 0 mm 1 mps 699 mmHg 79%
    22:00 +4°C° 0 mm 1 mps 699 mmHg 81%
    23:00 +4°C° 0 mm 1 mps 699 mmHg 82%
    Show more